Home > Weather > Fort Smith > Past weeks

Flag for Canada Past Weather in Fort Smith, Northwest Territories, Canada — Yesterday and Last 2 Weeks

Now
55 °F

Partly sunny.


Feels Like: 55 °F
Forecast: 52 / 76 °F
Wind: No wind

Location: Fort Smith

Current Time: Jun 25, 2016 at 6:26:49 AM

Latest Report: Jun 25, 2016 at 6:00 AM


Visibility: 15 mi

Pressure: 29.87 "Hg

Humidity: 88%

Dew Point: 52 °F

Location of Fort SmithLocation

Past Weather in Fort Smith — Graph

°F

Fort Smith Temperature Yesterday

Maximum temperature yesterday: 72 °F (at 5:00 PM)
Minimum temperature yesterday: 54 °F (at 3:00 AM)
Average temperature yesterday: 64 °F

High & Low Weather Summary for the Past Weeks

 TemperatureHumidityPressure
High88 °F (Jun 21, 4:00 PM)100% (Jun 12, 8:00 AM)30.11 "Hg (Jun 12, 8:00 AM)
Low37 °F (Jun 20, 4:00 AM)19% (Jun 21, 4:00 PM)29.39 "Hg (Jun 15, 1:04 PM)
Average61 °F63%29.75 "Hg
* Reported Jun 10 5:00 AM — Jun 25 5:00 AM, Fort Smith, Weather by CustomWeather, © 2016

Note: Actual official high and low records may vary slightly from our data, if they occured in-between our weather recording intervals... More about our weather records

Advertising

Fort Smith Weather History for the Previous 24 Hours

Scroll right to see more
 ConditionsComfort  
Time TempWeatherWind HumidityBarometerVisibility
5:00 AM
Sat, Jun 25
57 °FPassing clouds.3 mph88%29.85 "Hg15 mi
4:00 AM57 °FMostly cloudy.2 mph88%29.85 "Hg15 mi
3:00 AM55 °FPassing clouds.2 mph88%29.84 "Hg15 mi
2:00 AM55 °FPassing clouds.No wind88%29.84 "Hg15 mi
1:00 AM57 °FPassing clouds.No wind82%29.83 "Hg15 mi
12:00 AM59 °FPassing clouds.No wind82%29.83 "Hg15 mi
11:00 PM
Fri, Jun 24
63 °FScattered clouds.No wind73%29.82 "Hg15 mi
10:00 PM68 °FBroken clouds.No wind60%29.81 "Hg15 mi
9:00 PM70 °FScattered clouds.2 mph57%29.80 "Hg15 mi
8:00 PM72 °FPassing clouds.5 mph53%29.79 "Hg15 mi
7:00 PM72 °FBroken clouds.5 mph57%29.78 "Hg15 mi
6:00 PM72 °FScattered showers. Partly sunny.9 mph53%29.78 "Hg15 mi
5:00 PM72 °FPartly sunny.5 mph57%29.79 "Hg15 mi
4:00 PM70 °FBroken clouds.6 mph57%29.79 "Hg15 mi
3:00 PM70 °FPartly sunny.8 mph60%29.80 "Hg15 mi
2:00 PM68 °FBroken clouds.3 mph64%29.80 "Hg15 mi
1:00 PM68 °FPartly sunny.5 mph69%29.80 "Hg15 mi
12:00 PM64 °FPartly sunny.3 mph73%29.79 "Hg15 mi
11:00 AM64 °FBroken clouds.No wind73%29.79 "Hg15 mi
10:00 AM63 °FPartly sunny.6 mph77%29.79 "Hg15 mi
9:00 AM63 °FPartly sunny.5 mph83%29.78 "Hg15 mi
8:00 AM61 °FPartly sunny.3 mph83%29.78 "Hg15 mi
7:00 AM59 °FPartly sunny.2 mph88%29.78 "Hg15 mi
6:00 AM55 °FBroken clouds.2 mph94%29.78 "Hg15 mi
Weather by CustomWeather, © 2016

See weather overviewHow to use our weather pages